Centralia, IL

1:51 PM CDT on August 18, 2017 (GMT -0500)
Centralia Municipal

Weather History for KENL - May, 2014

Change the Weather History Date:

Friday, May 9, 2014

  Actual Average (KSLO) Record (KSLO)
Temperature  
Mean Temperature 68 °F -  
Max Temperature 75 °F 74 °F 88 °F (1963)
Min Temperature 62 °F 50 °F 33 °F (1960)
Cooling Degree Days 4    
Growing Degree Days 18 (Base 50)    
Moisture  
Dew Point 61 °F    
Average Humidity 81    
Maximum Humidity 92    
Minimum Humidity 62    
Precipitation  
Precipitation 0.16 in - - ()
Sea Level Pressure  
Sea Level Pressure 29.86 in    
Wind  
Wind Speed 10 mph (South)    
Max Wind Speed 17 mph    
Max Gust Speed 24 mph    
Visibility 9 miles    
Events Rain    
Averages and records for this station are not official NWS values.
T = Trace of Precipitation, MM = Missing Value Source: NWS Daily Summary

Daily Weather History Graph

Daily Weather History Graph

Search for Another Location

Airport or City:

Trip Planner

Search our weather history database for the weather conditions in past years. The results will help you decide how hot, cold, wet, or windy it might be!

Date:

Astronomy

May. 09, 2014 Rise Set
Actual Time 5:50 AM CDT 7:55 PM CDT
Civil Twilight 5:21 AM CDT 8:25 PM CDT
Nautical Twilight 4:45 AM CDT 9:00 PM CDT
Astronomical Twilight 4:06 AM CDT 9:39 PM CDT
Moon 2:56 PM CDT (5/9) 2:48 AM CDT (5/9)
Length of Visible Light 15h 03m
Length of Day
14h 05m
Waxing Gibbous, 74% of the Moon is Illuminated
May 9
Waxing Gibbous
May 14
Full
May 21
Last Quarter
May 28
New
Jun 5
First Quarter

Hourly Weather History & Observations

Time (CDT) Temp. Dew Point Humidity Pressure Visibility Wind Dir Wind Speed Gust Speed Precip Events Conditions
12:15 AM 65.5 °F 63.1 °F 92% 29.92 in 7.0 mi SSE 12.7 mph - N/A Rain Rain
12:35 AM 65.5 °F 63.0 °F 92% 29.90 in 10.0 mi South 10.4 mph - N/A Rain Light Rain
12:55 AM 65.8 °F 63.0 °F 90% 29.90 in 10.0 mi South 9.2 mph - N/A Rain Rain
1:15 AM 65.7 °F 63.0 °F 91% 29.88 in 5.0 mi SSE 8.1 mph - 0.02 in Rain Light Rain
1:35 AM 65.7 °F 63.0 °F 91% 29.87 in 10.0 mi SSE 4.6 mph - 0.02 in Rain Light Rain
1:55 AM 65.5 °F 63.0 °F 92% 29.88 in 7.0 mi SSW 5.8 mph - 0.02 in Rain Light Rain
2:15 AM 65.5 °F 63.0 °F 92% 29.87 in 7.0 mi South 8.1 mph - N/A Rain Light Rain
2:35 AM 65.7 °F 63.1 °F 92% 29.85 in 10.0 mi SSE 11.5 mph - N/A Rain Light Rain
2:55 AM 65.8 °F 63.1 °F 91% 29.85 in 10.0 mi SSE 10.4 mph - N/A   Overcast
3:15 AM 65.7 °F 63.0 °F 91% 29.85 in 10.0 mi SSE 10.4 mph 18.4 mph N/A Rain Rain
3:35 AM 65.8 °F 62.8 °F 90% 29.84 in 10.0 mi South 10.4 mph - N/A Rain Light Rain
3:55 AM 65.7 °F 62.6 °F 90% 29.83 in 10.0 mi SSE 13.8 mph - N/A Rain Light Rain
4:15 AM 65.5 °F 62.6 °F 90% 29.84 in 7.0 mi South 11.5 mph - N/A Rain Rain
4:35 AM 65.3 °F 62.6 °F 91% 29.84 in 7.0 mi South 11.5 mph - 0.01 in Rain Rain
4:55 AM 66.2 °F 62.6 °F 88% 29.84 in 7.0 mi South 16.1 mph 24.2 mph N/A Rain Rain
5:15 AM 65.3 °F 62.2 °F 90% 29.83 in 7.0 mi South 11.5 mph 20.7 mph 0.02 in Rain Rain
5:35 AM 64.6 °F 61.7 °F 90% 29.83 in 7.0 mi SSE 13.8 mph 20.7 mph 0.06 in Rain Rain
5:55 AM 64.6 °F 61.9 °F 91% 29.83 in 7.0 mi SE 11.5 mph - 0.08 in Rain Rain
6:15 AM 64.4 °F 61.7 °F 91% 29.84 in 5.0 mi Calm Calm - 0.03 in Rain Rain
6:35 AM 64.4 °F 60.8 °F 88% 29.85 in 10.0 mi SSW 6.9 mph - N/A Rain Light Rain
6:55 AM 63.9 °F 60.4 °F 89% 29.86 in 10.0 mi SSW 9.2 mph - 0.03 in Rain Rain
7:15 AM 64.0 °F 60.3 °F 87% 29.86 in 10.0 mi SSW 10.4 mph - N/A   Overcast
7:35 AM 63.9 °F 60.4 °F 89% 29.85 in 10.0 mi SSW 8.1 mph - N/A   Overcast
7:55 AM 64.0 °F 61.3 °F 91% 29.84 in 10.0 mi South 10.4 mph - N/A   Mostly Cloudy
8:15 AM 66.4 °F 62.4 °F 87% 29.84 in 10.0 mi South 11.5 mph - N/A   Scattered Clouds
8:35 AM 66.2 °F 61.7 °F 85% 29.84 in 10.0 mi South 10.4 mph - N/A   Scattered Clouds
8:55 AM 68.0 °F 63.0 °F 84% 29.85 in 10.0 mi South 13.8 mph - N/A   Scattered Clouds
9:15 AM 68.4 °F 62.4 °F 81% 29.86 in 10.0 mi South 12.7 mph - N/A   Mostly Cloudy
9:35 AM 70.0 °F 63.1 °F 79% 29.86 in 10.0 mi SSW 10.4 mph - N/A   Scattered Clouds
9:55 AM 70.2 °F 63.3 °F 79% 29.87 in 10.0 mi SSW 12.7 mph - N/A   Mostly Cloudy
10:15 AM 70.3 °F 62.6 °F 76% 29.87 in 10.0 mi SW 13.8 mph - N/A   Overcast
10:35 AM 71.1 °F 63.1 °F 76% 29.87 in 10.0 mi SW 12.7 mph - N/A   Mostly Cloudy
10:55 AM 73.4 °F 62.6 °F 69% 29.88 in 10.0 mi WSW 13.8 mph - N/A   Overcast
11:15 AM 71.1 °F 61.7 °F 72% 29.87 in 10.0 mi WSW 12.7 mph - N/A   Overcast
11:35 AM 73.2 °F 62.6 °F 69% 29.85 in 10.0 mi SSW 11.5 mph - N/A   Scattered Clouds
11:55 AM 73.8 °F 62.4 °F 68% 29.85 in 10.0 mi SW 12.7 mph 18.4 mph N/A   Clear
12:15 PM 73.8 °F 60.8 °F 64% 29.85 in 10.0 mi WSW 11.5 mph - N/A   Scattered Clouds
12:35 PM 74.7 °F 61.0 °F 62% 29.85 in 10.0 mi SW 11.5 mph 18.4 mph N/A   Scattered Clouds
12:55 PM 75.4 °F 63.1 °F 66% 29.86 in 10.0 mi SSW 11.5 mph 17.3 mph N/A   Scattered Clouds
1:15 PM 75.2 °F 62.4 °F 64% 29.87 in 10.0 mi SW 12.7 mph 17.3 mph N/A   Mostly Cloudy
1:35 PM 74.5 °F 61.2 °F 63% 29.87 in 10.0 mi WSW 12.7 mph - N/A   Mostly Cloudy
1:55 PM 72.5 °F 61.3 °F 68% 29.88 in 10.0 mi WSW 12.7 mph 17.3 mph N/A Rain Rain
2:15 PM 68.9 °F 59.0 °F 71% 29.86 in 7.0 mi SSW 17.3 mph 24.2 mph 0.01 in Rain Rain
2:35 PM 66.4 °F 58.5 °F 76% 29.84 in 10.0 mi SSE 11.5 mph 20.7 mph 0.02 in   Scattered Clouds
2:55 PM 67.3 °F 58.8 °F 74% 29.83 in 10.0 mi SSW 5.8 mph - 0.02 in   Clear
3:15 PM 66.0 °F 58.6 °F 77% 29.84 in 10.0 mi SSW 6.9 mph - N/A   Clear
3:35 PM 66.2 °F 59.0 °F 78% 29.84 in 10.0 mi SW 6.9 mph - N/A   Scattered Clouds
3:55 PM 69.1 °F 60.1 °F 73% 29.83 in 10.0 mi South 11.5 mph - N/A   Scattered Clouds
4:15 PM 69.8 °F 61.9 °F 76% 29.83 in 10.0 mi South 13.8 mph - N/A   Clear
4:35 PM 70.0 °F 61.2 °F 73% 29.83 in 10.0 mi South 15.0 mph - N/A   Clear
4:55 PM 69.6 °F 60.4 °F 73% 29.84 in 10.0 mi SSW 11.5 mph - N/A   Scattered Clouds
5:15 PM 70.7 °F 59.7 °F 68% 29.84 in 10.0 mi SSW 11.5 mph - N/A   Scattered Clouds
5:35 PM 70.7 °F 59.7 °F 68% 29.83 in 10.0 mi South 9.2 mph - N/A   Clear
5:55 PM 69.8 °F 59.2 °F 69% 29.83 in 10.0 mi South 9.2 mph - N/A   Clear
6:15 PM 69.1 °F 59.4 °F 71% 29.84 in 10.0 mi SSW 8.1 mph - N/A   Clear
6:35 PM 69.1 °F 60.1 °F 73% 29.84 in 10.0 mi South 5.8 mph - N/A   Clear
6:55 PM 68.4 °F 60.4 °F 76% 29.84 in 10.0 mi South 8.1 mph - N/A   Clear
7:15 PM 68.2 °F 60.3 °F 76% 29.85 in 10.0 mi South 5.8 mph - N/A   Clear
7:35 PM 67.5 °F 60.1 °F 77% 29.85 in 10.0 mi South 5.8 mph - N/A   Clear
7:55 PM 66.9 °F 60.3 °F 79% 29.85 in 10.0 mi South 6.9 mph - N/A   Clear
8:15 PM 65.7 °F 60.1 °F 82% 29.86 in 10.0 mi South 6.9 mph - N/A   Clear
8:35 PM 64.9 °F 60.3 °F 85% 29.88 in 10.0 mi South 4.6 mph - N/A   Clear
8:55 PM 64.4 °F 60.1 °F 86% 29.87 in 10.0 mi SSE 3.5 mph - N/A   Clear
9:15 PM 63.7 °F 59.9 °F 87% 29.88 in 10.0 mi SSE 4.6 mph - N/A   Clear
9:35 PM 63.5 °F 59.9 °F 88% 29.89 in 10.0 mi South 5.8 mph - N/A   Clear
9:55 PM 63.7 °F 59.4 °F 86% 29.89 in 10.0 mi SSE 4.6 mph - N/A   Clear
10:15 PM 63.5 °F 59.4 °F 86% 29.90 in 10.0 mi South 8.1 mph - N/A   Clear
10:35 PM 63.3 °F 59.4 °F 87% 29.90 in 10.0 mi Calm Calm - N/A   Clear
10:55 PM 62.8 °F 59.4 °F 89% 29.90 in 10.0 mi Calm Calm - N/A   Clear
11:15 PM 62.8 °F 59.9 °F 90% 29.90 in 10.0 mi Calm Calm - N/A   Clear
11:35 PM 62.6 °F 59.5 °F 90% 29.90 in 10.0 mi Calm Calm - N/A   Clear
11:55 PM 62.8 °F 59.9 °F 90% 29.90 in 10.0 mi SSE 3.5 mph - N/A   Clear